Weather History for Park Rapids, MN

Change the Weather History Date:

Thursday, January 16, 2014

  Actual Average Record
Temperature  
Mean Temperature 16 °F -  
Max Temperature 33 °F 16 °F 47 °F (1973)
Min Temperature -2 °F -4 °F -39 °F (1977)
Degree Days  
Heating Degree Days 50    
Moisture  
Dew Point 2 °F    
Average Humidity 76    
Maximum Humidity 86    
Minimum Humidity 67    
Precipitation  
Precipitation 0.01 in - - ()
Sea Level Pressure  
Sea Level Pressure 29.64 in    
Wind  
Wind Speed 23 mph (NW)    
Max Wind Speed 41 mph    
Max Gust Speed 51 mph    
Visibility 4 miles    
Events Snow    
Averages and records for this station are not official NWS values.
T = Trace of Precipitation, MM = Missing Value Source: NWS Daily Summary

Daily Weather History Graph

Daily Weather History Graph

Search for Another Location

Airport:

Trip Planner

Search our weather history database for the weather conditions in past years. The results will help you decide how hot, cold, wet, or windy it might be!

Date:

Astronomy

Jan. 16, 2014 Rise Set
Actual Time 8:00 AM CST 5:00 PM CST
Civil Twilight 7:26 AM CST 5:34 PM CST
Nautical Twilight 6:48 AM CST 6:11 PM CST
Astronomical Twilight 6:12 AM CST 6:48 PM CST
Moon 5:59 PM CST (1/16) 7:49 AM CST (1/16)
Length of Visible Light 10h 07m
Length of Day
8h 59m
Full, 100% of the Moon is Illuminated
Jan 16
Full
Jan 23
Last Quarter
Jan 30
New
Feb 6
First Quarter
Feb 14
Full

Hourly Weather History & Observations

Time (CST) Temp. Windchill Dew Point Humidity Pressure Visibility Wind Dir Wind Speed Gust Speed Precip Events Conditions
12:53 AM 32.0 °F 21.2 °F 28.0 °F 85% 29.31 in 10.0 mi WNW 16.1 mph - N/A   Overcast
1:53 AM 33.1 °F 21.2 °F 28.0 °F 82% 29.31 in 10.0 mi WNW 20.7 mph - N/A   Overcast
2:53 AM 32.0 °F 20.5 °F 28.0 °F 85% 29.33 in 7.0 mi NW 18.4 mph 26.5 mph 0.00 in Snow Light Snow
3:23 AM 30.0 °F 14.9 °F 26.1 °F 85% 29.28 in 1.8 mi NW 29.9 mph 43.7 mph 0.00 in Snow Light Snow
3:51 AM 24.8 °F 5.5 °F 21.2 °F 86% 29.31 in 0.8 mi NNW 41.4 mph 50.6 mph 0.00 in Snow Light Snow
3:53 AM 24.1 °F 5.4 °F 19.9 °F 84% 29.39 in 0.8 mi NNW 36.8 mph 50.6 mph 0.00 in Snow Light Snow
4:15 AM 21.9 °F 3.4 °F 16.0 °F 78% 29.34 in 1.5 mi NNW 32.2 mph 42.6 mph 0.01 in Snow Light Snow
4:49 AM 19.4 °F 3.2 °F 15.8 °F 86% 29.37 in 3.0 mi NW 20.7 mph 31.1 mph 0.01 in Snow Light Snow
4:53 AM 19.9 °F 2.8 °F 15.1 °F 81% 29.45 in 4.0 mi NW 24.2 mph 33.4 mph 0.01 in Snow Light Snow
5:15 AM 18.0 °F -1.7 °F 12.0 °F 78% 29.38 in 1.8 mi NW 31.1 mph 42.6 mph 0.00 in Snow Light Snow
5:32 AM 17.1 °F 0.1 °F 10.0 °F 74% 29.40 in 2.5 mi NW 20.7 mph 39.1 mph 0.00 in Snow Light Snow
5:41 AM 17.1 °F -1.7 °F 10.0 °F 74% 29.41 in 7.0 mi NW 26.5 mph 36.8 mph 0.00 in   Overcast
5:53 AM 16.0 °F -2.1 °F 9.0 °F 74% 29.50 in 4.0 mi NW 23.0 mph 31.1 mph 0.00 in Snow Light Snow
6:16 AM 15.1 °F -5.9 °F 6.1 °F 68% 29.42 in 1.8 mi NW 32.2 mph 42.6 mph 0.00 in   Overcast
6:23 AM 15.1 °F -2.9 °F 6.1 °F 68% 29.42 in 3.0 mi NW 21.9 mph 42.6 mph 0.00 in   Overcast
6:53 AM 12.0 °F -5.6 °F 3.0 °F 67% 29.52 in 7.0 mi NW 18.4 mph 34.5 mph 0.00 in   Overcast
7:53 AM 8.1 °F -12.6 °F 1.9 °F 76% 29.55 in 5.0 mi NNW 23.0 mph 31.1 mph 0.00 in   Overcast
8:46 AM 6.1 °F -16.1 °F -0.0 °F 76% 29.51 in 1.8 mi NW 25.3 mph 33.4 mph 0.00 in Snow Light Snow
8:53 AM 6.1 °F -15.7 °F -0.0 °F 76% 29.60 in 1.2 mi NW 24.2 mph 33.4 mph 0.00 in Snow Light Snow
9:11 AM 6.1 °F -14.3 °F -0.9 °F 73% 29.53 in 3.0 mi NW 20.7 mph 28.8 mph 0.00 in   Overcast
9:29 AM 5.0 °F -14.2 °F -0.9 °F 76% 29.54 in 1.8 mi NW 17.3 mph 26.5 mph 0.00 in Snow Light Snow
9:53 AM 3.9 °F -18.1 °F -2.9 °F 73% 29.64 in 1.5 mi NW 23.0 mph 32.2 mph 0.00 in   Overcast
10:53 AM 3.0 °F -19.3 °F -4.0 °F 73% 29.68 in 2.5 mi NNW 23.0 mph 31.1 mph 0.00 in   Overcast
11:07 AM 3.9 °F -16.6 °F -2.9 °F 73% 29.61 in 3.0 mi NW 19.6 mph 28.8 mph 0.00 in   Overcast
11:14 AM 3.0 °F -20.2 °F -2.9 °F 76% 29.61 in 1.8 mi NW 25.3 mph 35.7 mph 0.00 in   Overcast
11:23 AM 3.0 °F -20.6 °F -4.0 °F 73% 29.61 in 1.0 mi NNW 26.5 mph 35.7 mph 0.00 in   Overcast
11:53 AM 3.0 °F -19.7 °F -4.0 °F 73% 29.71 in 1.2 mi NNW 24.2 mph 33.4 mph 0.00 in   Overcast
12:53 PM 3.0 °F -21.4 °F -4.0 °F 73% 29.73 in 1.2 mi NNW 28.8 mph 35.7 mph 0.00 in   Overcast
1:10 PM 3.0 °F -19.3 °F -4.0 °F 73% 29.66 in 2.5 mi NW 23.0 mph 29.9 mph 0.00 in   Overcast
1:17 PM 3.0 °F -19.3 °F -4.0 °F 73% 29.66 in 1.5 mi NNW 23.0 mph 34.5 mph 0.00 in   Overcast
1:27 PM 3.0 °F -17.8 °F -4.0 °F 73% 29.66 in 3.0 mi NNW 19.6 mph 29.9 mph 0.00 in   Overcast
1:40 PM 3.0 °F -21.4 °F -4.0 °F 73% 29.67 in 1.8 mi NNW 28.8 mph 33.4 mph 0.00 in Snow Light Snow
1:53 PM 1.9 °F -20.2 °F -5.1 °F 72% 29.76 in 1.5 mi NW 21.9 mph 34.5 mph 0.00 in   Overcast
1:58 PM 1.9 °F -20.7 °F -5.1 °F 72% 29.68 in 3.0 mi NW 23.0 mph 32.2 mph 0.00 in   Overcast
2:14 PM 1.9 °F -20.2 °F -5.1 °F 72% 29.69 in 1.8 mi NNW 21.9 mph 33.4 mph 0.00 in   Overcast
2:36 PM 1.9 °F -20.2 °F -5.1 °F 72% 29.70 in 3.0 mi NW 21.9 mph - 0.00 in   Overcast
2:53 PM 1.9 °F -18.7 °F -5.1 °F 72% 29.81 in 3.0 mi NNW 18.4 mph 26.5 mph 0.00 in   Overcast
3:12 PM 1.9 °F -21.2 °F -5.1 °F 72% 29.73 in 2.0 mi NNW 24.2 mph 28.8 mph 0.00 in   Overcast
3:39 PM 1.9 °F -20.2 °F -4.0 °F 76% 29.75 in 3.0 mi NW 21.9 mph 28.8 mph 0.00 in   Overcast
3:53 PM 1.9 °F -19.2 °F -4.0 °F 76% 29.85 in 2.5 mi NNW 19.6 mph 31.1 mph 0.00 in   Overcast
4:11 PM 1.9 °F -21.2 °F -4.0 °F 76% 29.76 in 3.0 mi NW 24.2 mph 27.6 mph 0.00 in   Overcast
4:53 PM 1.9 °F -18.7 °F -2.9 °F 80% 29.89 in 3.0 mi NNW 18.4 mph - 0.00 in   Overcast
5:17 PM 1.9 °F -19.2 °F -4.0 °F 76% 29.80 in 4.0 mi NNW 19.6 mph 27.6 mph 0.00 in   Overcast
5:53 PM 1.9 °F -20.2 °F -2.9 °F 80% 29.93 in 3.0 mi NNW 21.9 mph 31.1 mph 0.00 in   Overcast
6:53 PM 3.0 °F -18.8 °F -2.0 °F 80% 29.95 in 3.0 mi NNW 21.9 mph 28.8 mph 0.00 in   Overcast
7:53 PM 1.9 °F -19.2 °F -4.0 °F 76% 30.00 in 4.0 mi NNW 19.6 mph 29.9 mph 0.00 in   Overcast
8:53 PM -0.0 °F -23.3 °F -5.1 °F 79% 30.03 in 8.0 mi NNW 23.0 mph 28.8 mph 0.00 in   Clear
9:53 PM -0.9 °F -23.0 °F -6.0 °F 79% 30.05 in 10.0 mi NNW 19.6 mph - N/A   Partly Cloudy
10:35 PM -2.0 °F -25.0 °F -7.1 °F 79% 29.94 in 9.0 mi NNW 20.7 mph - N/A   Mostly Cloudy
10:53 PM -2.0 °F -23.9 °F -7.1 °F 79% 30.07 in 10.0 mi NNW 18.4 mph - N/A   Overcast
11:42 PM -2.9 °F -21.6 °F -8.0 °F 79% 29.95 in 10.0 mi North 12.7 mph - N/A   Partly Cloudy
11:53 PM -2.9 °F -23.8 °F -8.0 °F 79% 30.08 in 10.0 mi NNW 16.1 mph 20.7 mph N/A   Partly Cloudy